Dewpoint
44 44 45 46 46 46 47 47 47 47 47 47 46 48 47 48 49 49 49 47 49 53 57 57 56 56 51 42 39 45 54 55 51 44 35 27 23 18 14 15 20 17 13 15 22 24 25
44 44 45 46 46 47 48 47 47 47 47 47 45 47 47 48 48 49 49 49 50 51 54 56 55 56 48 38 41 51 51 49 48 40 34 27 20 17 15 12 17 12 17 20 24 22 21
43 44 44 45 45 46 47 47 47 46 47 47 45 46 48 47 47 47 49 49 49 48 52 56 55 51 44 39 41 54 54 50 42 38 33 29 24 22 20 17 20 18 19 23 24 24 22
43 43 43 45 45 46 46 46 47 46 45 46 46 46 47 47 47 47 48 49 49 49 49 55 54 48 42 40 42 49 49 42 41 38 36 31 31 24 26 25 21 17 13 14 19 24 25
43 43 43 44 44 45 45 45 46 45 44 44 46 46 47 47 47 46 46 48 48 49 49 55 49 46 37 42 40 43 44 39 37 36 36 34 31 26 29 22 18 12 9 10 22 25 25
42 43 43 44 44 44 44 45 45 44 43 43 45 46 46 46 47 47 45 44 45 47 52 52 46 44 39 35 37 40 40 38 34 33 33 30 27 24 21 21 18 14 12 9 16 24 25
43 42 43 44 44 44 44 44 44 44 44 44 44 45 45 45 46 47 45 40 40 46 47 44 41 37 33 35 36 36 36 36 34 32 27 29 25 22 18 21 19 18 14 18 15 25 23
42 42 43 43 45 44 44 44 43 43 43 43 45 45 45 45 46 47 45 38 38 41 33 41 44 40 37 35 32 34 34 31 33 30 28 29 25 24 23 21 24 23 20 17 26 26 25
42 41 42 43 43 45 44 43 43 43 44 45 45 45 45 46 46 45 41 40 44 42 33 39 41 41 37 35 30 33 33 30 29 30 28 28 26 26 24 23 24 23 22 21 23 26 24
42 42 41 42 43 44 44 44 43 44 45 45 45 45 45 45 44 43 37 43 43 42 27 35 39 40 39 35 30 33 33 30 29 27 29 28 27 26 26 25 24 21 23 23 27 24 20
41 41 41 40 42 43 44 44 44 44 45 45 45 44 45 45 39 37 41 42 42 41 19 31 37 40 38 31 30 32 33 30 26 26 27 27 26 27 26 25 24 23 25 25 27 23 24
37 40 41 41 41 41 43 43 44 44 45 45 45 45 45 40 39 38 44 42 40 27 21 31 36 36 35 32 28 32 32 30 27 25 27 27 29 26 26 26 26 27 26 27 29 28 24
36 35 37 40 41 40 40 40 42 43 44 44 44 44 43 41 36 42 41 37 25 17 31 30 33 34 35 29 28 30 30 28 23 22 22 24 25 27 27 25 26 25 23 24 23 24 20
39 38 35 35 37 39 40 41 41 39 39 42 43 44 41 40 39 41 39 31 17 12 22 28 33 31 33 29 27 28 27 26 25 21 21 22 22 26 26 24 25 23 24 28 19 20 19
39 39 39 39 34 34 37 38 41 41 41 41 43 38 38 39 41 41 34 21 15 15 24 25 28 31 31 29 27 25 26 25 25 22 20 20 20 28 27 29 25 24 22 22 17 14 13
38 39 41 40 38 36 35 35 36 39 41 41 38 36 36 41 42 40 30 20 20 22 28 28 23 29 27 28 28 25 23 25 23 23 20 19 20 28 28 29 27 25 23 19 17 9 8
35 37 40 40 40 38 36 37 36 37 39 41 35 32 39 42 42 35 24 22 22 22 25 27 23 26 30 28 30 29 22 21 24 23 23 19 17 26 27 25 22 23 20 18 16 16 10
35 34 37 39 42 40 39 40 40 40 40 38 35 27 41 41 30 31 27 28 31 23 29 27 28 29 28 30 29 28 23 21 24 24 21 20 14 24 24 27 28 21 17 17 13 12 15
32 33 34 36 38 39 39 40 40 40 40 40 33 31 38 40 26 24 24 31 24 29 26 29 28 29 30 31 30 27 25 23 24 24 22 19 18 20 22 24 27 26 21 19 16 13 13
31 30 31 33 36 36 38 38 40 41 40 40 34 27 30 35 34 28 26 22 21 26 27 27 29 31 31 30 33 26 26 26 24 26 26 22 16 17 18 16 21 23 23 22 18 13 13
30 30 30 31 32 34 36 37 38 40 40 39 33 29 31 23 24 27 28 27 25 25 26 26 31 30 31 30 33 26 27 32 31 26 28 22 16 16 13 14 19 21 23 23 20 17 12
31 30 30 30 30 31 34 35 37 37 40 34 31 29 32 29 29 28 26 25 26 28 29 25 26 32 32 29 34 29 27 29 28 29 26 26 25 20 16 13 20 21 22 24 23 20 18
31 30 30 30 30 29 30 33 36 36 38 35 34 34 32 27 26 25 27 27 26 26 27 27 28 27 32 33 33 34 34 33 33 31 29 28 27 21 19 17 23 22 21 23 23 22 19
31 31 30 30 30 30 30 30 33 35 35 38 36 34 29 22 23 24 26 28 27 27 27 28 27 29 31 33 33 34 35 35 35 34 32 30 27 30 24 25 18 16 20 22 23 23 23
31 31 30 30 30 30 30 29 30 33 33 36 39 34 31 25 25 24 27 27 28 28 29 30 29 30 33 33 33 31 32 33 33 32 34 32 31 25 22 22 23 22 22 22 23 23 26
31 31 31 30 30 30 30 30 30 31 32 35 38 37 33 26 22 27 27 28 25 25 27 32 34 35 36 34 33 28 26 28 29 30 31 32 31 27 27 23 19 18 25 26 26 19 26
31 31 31 31 31 30 30 30 29 30 31 34 36 39 34 27 29 30 26 26 29 26 24 28 31 35 37 33 31 28 23 26 26 27 28 30 32 29 29 28 29 31 27 28 20 18 29
31 31 31 30 31 30 30 29 29 30 31 33 36 38 34 29 28 32 31 28 28 27 22 26 26 33 32 30 32 31 29 28 28 25 28 28 28 28 30 27 22 27 27 25 25 27 28
31 31 31 30 31 30 30 29 29 30 31 33 35 37 37 33 31 36 35 35 31 30 27 28 28 29 30 32 32 32 28 28 28 26 27 26 27 26 27 25 25 24 24 25 24 27 28
Wind_Speed
30 31 31 29 29 25 20 15 16 13 13 13 13 14 13 15 15 18 15 18 14 21 20 8 5 6 6 9 11 9 6 20 24 23 22 20 21 20 18 17 14 15 8 7 5 8 7
32 30 31 29 26 22 15 13 13 12 14 11 12 11 13 13 13 15 19 15 12 21 25 11 7 5 11 19 2 2 4 20 21 24 22 21 14 17 15 14 18 15 8 9 8 10 7
32 31 30 29 25 21 16 11 12 13 13 10 11 10 11 12 12 17 17 17 15 17 21 14 8 8 15 18 3 6 10 14 14 22 19 20 10 15 8 10 6 8 12 8 10 12 6
31 31 29 28 25 20 17 15 14 14 12 9 9 10 10 13 12 15 18 19 20 20 21 16 9 10 12 6 11 7 11 8 10 10 9 13 8 16 11 8 11 12 12 11 16 13 7
32 30 31 28 25 23 20 18 15 9 8 7 8 9 10 9 10 10 16 19 26 21 21 16 9 12 12 8 10 14 14 11 12 10 5 8 7 11 6 17 11 19 16 22 10 16 7
32 31 31 29 27 24 21 18 14 8 6 7 8 9 9 11 8 9 15 18 24 19 14 15 13 11 14 12 10 14 12 13 12 13 7 12 11 14 18 23 26 23 21 24 18 17 14
32 31 31 31 27 25 23 18 12 4 3 4 7 9 10 12 10 7 12 7 8 6 11 8 14 10 3 12 12 16 16 18 13 18 18 20 21 30 29 25 19 18 26 18 21 11 16
32 32 31 30 30 26 23 18 12 9 7 7 7 9 10 12 12 4 5 5 2 6 12 16 26 31 7 16 9 19 22 15 19 24 24 16 30 25 19 21 15 15 21 22 7 8 11
34 32 30 31 30 28 23 20 17 13 10 9 10 11 13 11 11 3 1 5 4 11 6 8 25 18 16 16 17 26 28 16 23 26 31 25 13 23 23 24 20 16 21 19 9 10 9
34 33 33 30 30 29 25 21 18 17 13 13 13 11 10 14 6 1 3 7 5 5 6 10 14 10 27 15 12 21 29 22 13 28 25 20 21 24 22 26 24 23 8 7 12 16 9
35 34 33 33 29 30 27 23 20 18 16 12 11 11 10 8 9 5 3 4 2 2 7 17 13 10 24 23 15 19 26 18 23 21 21 14 11 22 25 30 25 13 13 10 13 15 3
32 33 32 31 32 28 27 26 24 21 18 16 14 13 12 6 8 8 3 3 4 6 7 7 15 14 26 25 15 18 24 9 10 16 22 12 2 14 20 22 24 21 17 11 6 4 8
31 30 31 31 30 30 29 26 24 23 21 19 17 18 15 13 6 2 3 4 2 6 16 7 9 22 31 26 23 19 31 29 21 24 24 16 10 4 7 13 14 18 23 8 8 8 13
32 28 28 28 27 28 30 29 28 24 24 23 25 20 9 11 8 6 4 3 7 10 9 9 9 29 34 28 29 24 29 35 31 25 22 21 15 16 14 17 13 25 27 11 15 14 14
35 33 34 27 26 26 28 30 29 27 25 26 24 8 5 2 4 8 4 6 5 6 1 5 17 17 31 32 21 25 28 36 35 32 18 25 17 12 16 4 24 19 31 8 3 2 12
34 36 37 32 26 26 26 27 27 30 28 27 15 10 2 3 4 5 4 7 7 4 4 3 4 14 27 33 24 31 32 34 36 33 32 21 19 16 6 5 9 14 18 14 7 14 11
34 36 36 34 33 28 26 26 27 27 27 24 9 7 4 1 2 4 7 8 11 9 8 7 9 11 18 27 29 34 30 24 38 36 28 16 20 12 10 18 23 8 19 11 10 13 15
34 35 36 35 36 32 31 30 28 27 25 13 7 7 4 4 4 3 5 6 11 15 8 11 9 12 16 20 33 32 37 32 37 33 35 23 15 10 24 4 4 24 23 28 17 14 8
33 31 34 35 36 35 35 33 31 29 25 14 9 4 2 2 4 12 18 14 20 17 21 7 10 14 4 9 18 32 32 31 35 33 28 23 14 13 13 6 7 13 25 23 23 10 23
36 35 32 33 35 35 36 35 34 33 27 12 5 5 1 1 2 10 16 18 17 10 19 22 14 15 14 17 23 33 32 21 30 32 30 25 17 25 26 25 14 16 23 18 24 20 20
34 35 34 34 31 33 35 36 36 36 35 9 3 3 2 5 15 17 21 16 21 11 10 13 8 24 15 8 20 20 29 8 7 28 26 19 30 26 27 16 24 26 30 28 29 35 27
33 34 34 34 34 31 32 32 34 35 34 6 6 4 3 13 11 11 15 5 18 13 4 14 14 18 19 19 11 20 28 19 17 14 21 19 12 23 22 18 13 17 25 27 31 33 29
33 33 34 34 33 33 31 30 31 33 27 5 5 7 5 7 10 13 8 10 25 27 21 27 29 27 21 25 23 12 7 11 8 20 24 18 14 12 27 14 6 5 23 33 31 32 29
33 33 33 34 34 33 31 29 28 28 26 15 12 7 6 16 14 18 25 27 25 29 33 29 23 21 14 12 9 7 9 10 10 1 2 17 19 9 8 14 14 18 10 22 27 24 27
33 33 33 33 34 33 32 30 28 26 27 18 14 5 6 12 19 23 18 22 27 27 26 30 29 26 22 14 6 4 3 4 2 4 12 9 8 11 15 19 4 11 7 17 18 22 16
32 33 34 33 34 34 33 30 28 27 25 18 16 6 4 9 4 21 18 19 17 16 14 4 8 17 10 12 6 9 8 8 7 6 4 8 17 14 3 11 18 18 10 7 8 21 22
33 34 34 34 35 34 34 31 28 26 24 17 10 6 3 9 7 10 12 12 7 8 10 10 10 5 9 8 8 9 13 9 13 16 11 12 11 25 22 9 8 4 11 12 15 11 9
33 35 35 35 35 35 35 32 28 25 22 15 12 3 3 6 18 6 4 6 8 4 7 11 12 3 7 10 10 5 5 11 7 10 14 17 16 11 10 13 20 10 9 14 1 7 8
34 35 36 36 37 37 36 33 29 24 20 17 5 1 7 10 8 3 7 9 5 7 8 4 7 7 4 5 4 4 4 4 7 10 1 11 7 13 13 9 4 4 3 2 2 7 8
Wind_Direction
347 345 342 336 327 315 298 276 275 275 275 287 293 306 313 328 318 314 314 317 326 327 318 251 255 261 214 221 237 342 315 183 169 181 190 188 191 199 194 199 182 212 195 200 177 156 170
351 349 349 348 344 336 313 282 280 278 276 284 286 295 318 324 323 318 315 316 324 336 327 246 234 243 238 239 18 83 154 175 172 182 195 198 203 205 211 200 196 202 188 181 173 160 157
353 353 354 352 350 348 338 314 293 283 275 283 291 303 310 329 337 333 314 312 317 324 309 257 215 222 246 232 60 143 154 189 192 187 194 205 242 200 180 175 161 163 166 173 192 175 160
357 356 356 354 353 353 345 326 312 296 287 297 310 307 314 318 318 338 335 318 313 303 299 274 212 219 242 244 237 206 165 199 207 204 213 198 252 220 227 130 156 178 203 188 186 179 166
358 1 357 354 351 345 340 332 325 306 297 320 326 322 327 330 308 329 334 342 302 287 289 247 202 209 237 134 195 205 180 183 191 198 181 174 207 206 185 173 168 191 199 201 158 195 155
2 1 1 356 352 348 341 334 328 329 340 354 343 335 336 328 312 323 319 310 289 284 266 196 221 184 228 212 176 172 182 178 174 173 160 181 194 202 205 196 196 190 217 199 193 191 196
4 5 5 359 358 355 348 344 343 349 356 32 344 330 333 327 317 304 317 347 355 195 204 276 187 211 306 176 151 179 170 158 197 193 192 190 195 208 204 208 218 201 203 196 210 162 192
6 6 7 6 360 360 358 354 346 339 334 351 347 332 330 332 320 283 327 62 37 335 295 265 266 210 178 178 161 176 169 163 182 199 198 186 213 210 213 207 219 215 204 210 91 164 208
6 7 10 7 4 2 358 355 347 343 346 349 341 330 329 327 327 252 307 84 115 2 265 226 231 229 190 196 201 183 182 181 185 199 204 205 207 208 211 202 205 209 206 199 198 170 209
7 6 5 12 5 4 2 357 356 356 359 356 348 343 337 321 272 24 295 144 160 118 266 189 191 247 208 201 209 182 192 169 185 203 201 222 214 194 199 201 199 206 209 225 151 169 207
1 7 7 5 11 6 3 2 359 356 353 352 350 340 338 326 310 282 138 189 270 117 235 175 163 230 185 188 124 179 194 200 195 183 190 196 171 189 203 200 195 210 153 163 184 204 203
358 0 5 7 4 9 7 5 1 359 358 355 347 332 319 296 294 278 223 275 261 263 237 146 146 187 180 197 192 146 183 198 199 187 199 198 320 194 214 203 191 138 123 111 116 170 232
2 357 358 1 6 4 2 1 1 360 354 345 331 316 305 289 261 344 276 283 263 249 336 145 175 179 193 184 187 175 181 192 172 177 189 190 178 153 160 144 177 165 161 155 197 210 232
359 0 355 353 358 359 356 355 354 351 347 340 329 313 305 284 265 230 242 229 236 234 243 321 307 191 191 186 184 186 187 190 205 202 177 185 200 180 185 182 179 193 181 172 197 203 211
0 358 356 351 351 355 353 347 349 349 346 338 323 317 309 294 236 200 209 223 262 254 85 263 320 201 205 202 183 185 196 199 198 201 182 189 198 142 177 177 164 201 211 220 183 22 221
358 358 360 359 357 354 352 343 343 343 342 340 328 324 283 358 195 172 215 252 247 333 26 338 260 296 196 198 202 188 193 203 201 205 219 190 193 192 159 171 204 203 175 195 213 191 210
0 356 1 7 1 352 349 347 343 339 339 333 325 324 62 74 140 191 231 252 301 311 255 213 219 260 277 190 203 196 199 192 203 199 212 221 204 167 156 208 184 163 189 215 215 216 216
1 357 356 3 2 3 1 354 347 340 343 339 325 322 28 356 300 248 271 278 319 278 285 234 251 239 281 281 202 195 214 201 189 192 198 206 210 178 198 139 302 210 200 197 203 193 231
0 357 358 357 358 5 5 3 357 349 349 335 320 294 40 303 309 332 319 289 298 274 262 234 235 223 218 286 216 214 212 204 183 185 189 180 197 150 160 236 212 215 215 220 223 220 215
2 0 359 357 357 358 360 1 2 357 346 335 333 319 305 238 290 304 319 313 314 301 276 258 257 263 249 262 277 199 208 220 191 191 203 173 200 198 195 210 174 205 211 210 209 217 217
1 1 359 357 356 356 357 355 353 358 348 330 19 337 293 300 315 305 294 296 298 295 272 290 239 236 241 291 227 196 202 148 264 206 204 196 218 209 219 217 189 201 199 197 205 216 207
358 359 359 360 356 355 354 354 351 352 348 0 352 333 310 284 288 284 301 283 300 298 306 294 272 266 236 230 253 196 191 185 191 209 210 210 235 228 227 216 191 198 205 199 209 221 227
355 355 356 357 357 353 351 353 351 349 356 337 338 311 260 281 298 302 321 311 303 301 291 263 271 271 256 248 245 323 178 195 175 173 195 200 191 196 225 214 150 225 203 201 213 222 218
353 352 353 353 354 352 350 348 349 348 348 338 318 307 285 293 297 301 305 301 300 297 286 278 272 255 270 278 216 97 74 83 123 109 0 195 197 193 188 145 215 234 206 210 215 220 225
351 350 350 350 350 351 349 346 344 345 343 338 319 310 303 294 310 301 316 303 299 299 285 266 249 250 254 238 161 156 109 126 111 159 191 173 166 195 202 205 277 236 193 191 194 230 216
348 348 347 347 347 347 346 345 342 341 342 337 326 316 294 301 289 327 302 298 305 319 321 274 225 228 241 204 173 196 181 155 170 175 143 203 204 221 150 209 220 231 159 172 166 250 206
344 344 344 344 344 344 344 343 340 337 338 337 306 350 287 275 279 319 309 310 302 313 293 292 341 183 209 186 199 188 205 185 173 174 166 173 187 203 210 215 261 231 154 149 186 238 194
343 342 341 342 342 342 342 340 338 335 333 333 300 184 290 265 293 270 291 293 304 296 297 314 319 225 167 202 201 175 179 197 187 191 170 175 175 189 201 206 234 140 136 185 223 51 137
341 340 339 338 339 340 341 339 336 332 331 329 296 311 302 245 271 288 256 269 254 277 283 277 276 285 315 250 226 150 163 158 167 184 53 194 203 178 194 213 120 98 49 37 16 127 114